[[{"header":{"parameterUnit":"m.s-1","parameterCategory":1,"la1":30.2991,"la2":30.254,"lo1":-89.0895,"lo2":-89.0444,"dy":0.0017,"dx":0.0017,"nx":28,"ny":28,"refTime":"2026-01-03T09:00:00:Z","depth":0,"parameterNumber":2,"parameterNumberName":"U-component_of_WINDS"},"data":[0,0,0,0,0,0,0,0,0,0,0,0,0,0,0,0,0,0,0,0,0,0,0,0,0,0,0,0,0,0,0,0,0,0,0,0,0,0,0,0,0,0,0,0,0,0,0,0,0,0,0,0,0,0,0,0,0,0,-0.9592,-0.9592,0,-0.962,-0.962,-0.9621,-0.9606,-0.9605,-0.9604,-0.9603,-0.9635,-0.9636,-0.9638,0,0,0,0,0,0,0,0,0,0,0,0,0,-0.9527,-0.9528,-0.9592,-0.9592,-0.9592,-0.962,-0.962,-0.9621,-0.9606,-0.9605,-0.9604,-0.9603,-0.9634,-0.9636,-0.9638,0,0,0,0,0,0,0,0,0,0,0,0,0,-0.9555,-0.9529,-0.9592,-0.9588,-0.9588,-0.962,-0.962,-0.9621,-0.9606,-0.9605,-0.9604,-0.9603,-0.9634,-0.9636,-0.9638,-0.9676,0,0,-0.9645,-0.9646,0,0,0,0,0,0,0,0,-0.9554,-0.9558,-0.9588,-0.9588,-0.9588,-0.9608,-0.9609,-0.9639,-0.9606,-0.9599,-0.9603,-0.9602,-0.9627,-0.963,-0.9638,-0.9677,-0.9678,-0.9646,-0.9647,-0.9648,-0.9649,0,0,0,0,0,0,0,-0.9552,-0.9556,-0.9603,-0.9589,-0.9589,-0.9586,-0.9589,-0.9615,-0.9619,-0.96,-0.9599,-0.9602,-0.9627,-0.9635,-0.9638,-0.9679,-0.9645,-0.9648,-0.9649,-0.965,-0.9752,-0.9753,0,0,0,0,0,0,-0.955,-0.9555,-0.9602,-0.9604,-0.9568,-0.9588,-0.9591,-0.9603,-0.9619,-0.962,-0.9603,-0.9601,-0.9632,-0.9636,-0.9639,-0.9685,-0.9648,-0.965,-0.9651,-0.975,-0.9752,-0.9753,0,0,0,0,0,0,-0.9548,-0.9554,-0.9601,-0.9579,-0.9585,-0.959,-0.9604,-0.9604,-0.9613,-0.9621,-0.9622,-0.9611,-0.9631,-0.9636,-0.9667,-0.9686,-0.9651,-0.9653,-0.9749,-0.9751,-0.9753,-0.9777,0,0,0,0,0,0,-0.9546,-0.9553,-0.9567,-0.9579,-0.9586,-0.9627,-0.9605,-0.9605,-0.9617,-0.9614,-0.9629,-0.963,-0.9631,-0.9663,-0.9669,-0.9689,-0.9655,-0.9747,-0.975,-0.9752,-0.9774,-0.9779,-0.9784,0,0,0,0,0,-0.9544,-0.9573,-0.9568,-0.9574,-0.9603,-0.9628,-0.9632,-0.9631,-0.9618,-0.9632,-0.9638,-0.963,-0.9683,-0.9667,-0.9673,-0.9694,-0.9746,-0.9749,-0.9752,-0.9772,-0.9778,-0.9783,0,0,0,0,0,0,-0.9564,-0.9575,-0.9569,-0.9603,-0.9615,-0.9626,-0.9644,-0.9637,-0.9654,-0.9652,-0.965,-0.9654,-0.9686,-0.9693,-0.9675,-0.9731,-0.9712,-0.9717,-0.9726,-0.9732,-0.9736,-0.9735,-0.9657,0,0,0,0,0,-0.9572,-0.9591,-0.9599,-0.9628,-0.9635,-0.9638,-0.9649,-0.9647,-0.966,-0.9665,-0.9673,-0.9686,-0.9706,-0.9719,-0.9737,-0.9775,-0.9779,-0.9792,-0.9797,-0.98,-0.9805,-0.9826,-0.9833,-0.9763,-0.9763,-0.9763,0,0,-0.959,-0.9598,-0.961,-0.9633,-0.9642,-0.9662,-0.9643,-0.9665,-0.968,-0.9669,-0.9698,-0.9705,-0.9719,-0.9754,-0.9769,-0.976,-0.9825,-0.9804,-0.9807,-0.9809,-0.983,-0.9837,-0.9843,-0.9765,-0.9765,-0.9764,0,0,-0.9632,-0.9639,-0.9665,-0.9674,-0.9688,-0.969,-0.9696,-0.9708,-0.9711,-0.9741,-0.9733,-0.9751,-0.9785,-0.9796,-0.9806,-0.9853,-0.9847,-0.9859,-0.9884,-0.9905,-0.991,-0.9915,-0.9933,-0.994,-0.9863,-0.9863,-0.9863,0,-0.9652,-0.9682,-0.9679,-0.9702,-0.9713,-0.9702,-0.9729,-0.9738,-0.9757,-0.9765,-0.9754,-0.9797,-0.9806,-0.9843,-0.9855,-0.9863,-0.9871,-0.9858,-0.991,-0.9914,-0.9919,-0.9936,-0.9943,-0.9864,-0.9864,-0.9864,-0.9864,0,-0.9707,-0.9728,-0.9747,-0.9765,-0.9778,-0.9802,-0.9804,-0.9817,-0.9814,-0.9818,-0.9849,-0.9859,-0.988,-0.9888,-0.9886,-0.9926,-0.992,-0.9909,-0.9891,-0.9927,-0.9944,-0.995,-0.9866,-0.9866,-0.9865,-0.9865,0,0,-0.9764,-0.978,-0.9787,-0.9795,-0.9809,-0.9826,-0.985,-0.987,-0.9882,-0.9896,-0.9917,-0.9946,-0.9936,-0.9947,-0.9946,-0.9964,-1.0002,-0.9952,-0.9952,-0.9962,-1.0049,-1.0058,-1.0066,-0.9997,-0.9999,-1.0,-1.0048,0,-0.9808,-0.985,-0.9848,-0.9888,-0.9908,-0.9898,-0.9919,-0.9931,-0.9935,-0.9953,-0.9957,-0.9978,-0.9963,-0.997,-0.9988,-0.9994,-1.002,-0.999,-1.0019,-1.002,-1.0017,-1.0074,-1.0083,-1.0129,-1.0054,-1.0055,-1.0056,0,-0.9866,-0.9881,-0.9923,-0.9934,-0.9943,-0.9962,-0.998,-0.9997,-1.001,-1.0012,-1.0025,-1.002,-1.0046,-1.0026,-1.0062,-1.0042,-1.0053,-1.0058,-1.006,-1.0064,-1.0042,-1.0081,-1.0143,-1.0151,-1.0066,-1.0065,-1.0064,0,-0.9905,-0.9936,-0.9965,-0.9972,-0.9986,-1.0,-1.0007,-1.0019,-1.0031,-1.0047,-1.0055,-1.0074,-1.0085,-1.01,-1.0102,-1.0086,-1.0139,-1.0118,-1.0142,-1.0143,-1.0155,-1.0155,-1.0222,-1.016,-1.016,-1.016,-1.016,0,-0.9956,-0.9982,-0.9983,-1.0001,-1.003,-1.0028,-1.0057,-1.0063,-1.0073,-1.0093,-1.0085,-1.0104,-1.0104,-1.0124,-1.0125,-1.0156,-1.016,-1.0164,-1.0164,-1.0165,-1.0165,-1.0174,-1.0172,-1.0162,-1.0161,-1.0161,-1.0161,0,-1.0006,-1.0006,-1.0038,-1.0048,-1.0052,-1.0073,-1.0082,-1.01,-1.0103,-1.0128,-1.0134,-1.0139,-1.0162,-1.0164,-1.0191,-1.0191,-1.0229,-1.0225,-1.0225,-1.0225,-1.0249,-1.0248,-1.0326,-1.0337,-1.0266,-1.0267,-1.0267,0,-1.0039,-1.0059,-1.0071,-1.0083,-1.0091,-1.0111,-1.0123,-1.0121,-1.0134,-1.0151,-1.0167,-1.0189,-1.0206,-1.0243,-1.025,-1.027,-1.0268,-1.0294,-1.0271,-1.0272,-1.0271,-1.027,-1.0273,-1.0299,-1.03,-1.03,-1.0301,0,-1.0098,-1.0098,-1.0115,-1.0133,-1.0148,-1.0162,-1.0175,-1.0186,-1.0186,-1.0201,-1.0224,-1.0238,-1.0264,-1.0287,-1.0307,-1.0315,-1.0309,-1.0308,-1.0315,-1.0317,-1.0317,-1.0319,-1.0239,-1.0306,-1.0306,-1.0305,-1.0305,-1.0305,-1.0142,-1.0159,-1.0171,-1.0191,-1.02,-1.0213,-1.023,-1.0235,-1.0254,-1.0275,-1.0273,-1.0299,-1.0312,-1.0338,-1.0348,-1.0369,-1.036,-1.037,-1.0373,-1.0376,-1.0379,-1.0312,-1.0372,-1.0372,-1.0372,-1.0372,-1.0371,0,-1.0202,-1.0209,-1.0227,-1.0246,-1.0262,-1.0253,-1.0267,-1.0281,-1.0304,-1.0316,-1.0333,-1.036,-1.0382,-1.039,-1.0411,-1.0426,-1.0424,-1.0432,-1.0432,-1.0434,-1.0384,-1.0377,-1.0434,-1.0434,-1.0434,-1.0434,-1.0434,-1.0434,-1.0235,-1.0265,-1.0266,-1.0301,-1.0308,-1.0332,-1.0341,-1.0353,-1.0363,-1.0393,-1.0411,-1.0416,-1.0427,-1.0449,-1.0469,-1.0471,-1.048,-1.049,-1.0491,-1.0444,-1.0438,-1.0432,-1.0425,-1.0491,-1.0491,-1.0539,-1.054,-1.054]},{"header":{"parameterUnit":"m.s-1","parameterCategory":1,"la1":30.2991,"la2":30.254,"lo1":-89.0895,"lo2":-89.0444,"dy":0.0017,"dx":0.0017,"nx":28,"ny":28,"refTime":"2026-01-03T09:00:00:Z","depth":0,"parameterNumber":3,"parameterNumberName":"V-component_of_WINDS"},"data":[0,0,0,0,0,0,0,0,0,0,0,0,0,0,0,0,0,0,0,0,0,0,0,0,0,0,0,0,0,0,0,0,0,0,0,0,0,0,0,0,0,0,0,0,0,0,0,0,0,0,0,0,0,0,0,0,0,0,-1.7121,-1.7121,0,-1.719,-1.7191,-1.7192,-1.7173,-1.7172,-1.717,-1.7169,-1.7242,-1.7245,-1.7248,0,0,0,0,0,0,0,0,0,0,0,0,0,-1.6971,-1.6974,-1.7121,-1.7121,-1.7122,-1.719,-1.7191,-1.7192,-1.7173,-1.7172,-1.717,-1.7168,-1.7241,-1.7245,-1.7248,0,0,0,0,0,0,0,0,0,0,0,0,0,-1.7038,-1.6975,-1.712,-1.7121,-1.7122,-1.719,-1.7191,-1.7192,-1.7174,-1.7172,-1.717,-1.7168,-1.7239,-1.7244,-1.7249,-1.7321,0,0,-1.7264,-1.7266,0,0,0,0,0,0,0,0,-1.7034,-1.7044,-1.712,-1.7121,-1.7122,-1.7171,-1.7165,-1.7236,-1.7174,-1.7154,-1.7169,-1.7167,-1.722,-1.7226,-1.7244,-1.7325,-1.7328,-1.7264,-1.7267,-1.7269,-1.7271,0,0,0,0,0,0,0,-1.703,-1.704,-1.7148,-1.7121,-1.7123,-1.7118,-1.7125,-1.7178,-1.7198,-1.7156,-1.7155,-1.7163,-1.722,-1.7239,-1.7246,-1.7329,-1.7264,-1.7268,-1.7271,-1.7273,-1.7472,-1.7474,0,0,0,0,0,0,-1.7024,-1.7037,-1.7146,-1.715,-1.7072,-1.7122,-1.713,-1.7157,-1.7197,-1.7201,-1.7165,-1.7162,-1.7232,-1.724,-1.7248,-1.7335,-1.7269,-1.7274,-1.7277,-1.7469,-1.7472,-1.7475,0,0,0,0,0,0,-1.7021,-1.7034,-1.7143,-1.7093,-1.7107,-1.7127,-1.7158,-1.716,-1.7179,-1.7204,-1.7208,-1.7181,-1.7231,-1.7241,-1.7303,-1.7338,-1.7276,-1.728,-1.7467,-1.747,-1.7473,-1.7511,0,0,0,0,0,0,-1.7017,-1.7033,-1.7061,-1.7094,-1.7109,-1.7197,-1.716,-1.7163,-1.7188,-1.7184,-1.722,-1.7224,-1.723,-1.7296,-1.7308,-1.7343,-1.7284,-1.7464,-1.7468,-1.7472,-1.7506,-1.7515,-1.7522,0,0,0,0,0,-1.7012,-1.7069,-1.7062,-1.7076,-1.7144,-1.7199,-1.7208,-1.7213,-1.719,-1.7218,-1.7234,-1.7223,-1.7332,-1.7302,-1.7316,-1.7353,-1.7461,-1.7467,-1.7472,-1.7503,-1.7513,-1.7522,0,0,0,0,0,0,-1.704,-1.7073,-1.7066,-1.7136,-1.7165,-1.7196,-1.7231,-1.7224,-1.726,-1.7256,-1.7261,-1.7269,-1.7332,-1.7349,-1.7315,-1.7425,-1.7393,-1.7402,-1.7412,-1.7422,-1.743,-1.7425,-1.7288,0,0,0,0,0,-1.7054,-1.7095,-1.7122,-1.7181,-1.7195,-1.7211,-1.7235,-1.7236,-1.7266,-1.7279,-1.7299,-1.7329,-1.737,-1.7397,-1.7436,-1.7508,-1.7516,-1.754,-1.7548,-1.7555,-1.7562,-1.7602,-1.7613,-1.7492,-1.7492,-1.7492,0,0,-1.7084,-1.7107,-1.7133,-1.7187,-1.7209,-1.7252,-1.7221,-1.7268,-1.73,-1.7286,-1.7345,-1.7361,-1.7395,-1.7462,-1.7493,-1.7478,-1.7597,-1.7561,-1.7566,-1.757,-1.7609,-1.762,-1.763,-1.7496,-1.7495,-1.7494,0,0,-1.716,-1.7182,-1.7233,-1.7256,-1.729,-1.73,-1.7312,-1.7344,-1.7354,-1.7414,-1.7404,-1.7442,-1.7512,-1.7537,-1.7558,-1.7643,-1.7634,-1.7656,-1.7698,-1.7736,-1.7746,-1.7754,-1.7785,-1.7796,-1.7663,-1.7663,-1.7663,0,-1.7193,-1.7257,-1.7261,-1.7308,-1.7332,-1.7321,-1.7373,-1.7395,-1.744,-1.7457,-1.7439,-1.7527,-1.7549,-1.7622,-1.7642,-1.766,-1.7675,-1.7652,-1.7744,-1.7753,-1.7761,-1.779,-1.7802,-1.7665,-1.7665,-1.7665,-1.7664,0,-1.7297,-1.7341,-1.7378,-1.7422,-1.745,-1.75,-1.751,-1.7539,-1.7537,-1.7549,-1.761,-1.7635,-1.7679,-1.7696,-1.7696,-1.7769,-1.7759,-1.7743,-1.7711,-1.7775,-1.7803,-1.7814,-1.7669,-1.7668,-1.7667,-1.7666,0,0,-1.7394,-1.7438,-1.7452,-1.7471,-1.7508,-1.7542,-1.7591,-1.7633,-1.7658,-1.7689,-1.773,-1.779,-1.7774,-1.7799,-1.7801,-1.7835,-1.7901,-1.7814,-1.7815,-1.783,-1.7984,-1.7997,-1.801,-1.7894,-1.7896,-1.7898,-1.7981,0,-1.7474,-1.756,-1.7564,-1.7643,-1.7684,-1.7673,-1.7715,-1.7742,-1.7754,-1.7791,-1.7804,-1.7846,-1.7822,-1.7837,-1.787,-1.7886,-1.7932,-1.7879,-1.7934,-1.7936,-1.7927,-1.8024,-1.8038,-1.8116,-1.7992,-1.7994,-1.7995,0,-1.758,-1.7614,-1.7696,-1.7727,-1.7744,-1.7782,-1.7821,-1.7856,-1.7886,-1.7893,-1.792,-1.7916,-1.7966,-1.7932,-1.8002,-1.7966,-1.7988,-1.7999,-1.8002,-1.8009,-1.797,-1.8034,-1.814,-1.8153,-1.8013,-1.8011,-1.801,0,-1.7644,-1.771,-1.7768,-1.7785,-1.7821,-1.7848,-1.7865,-1.7893,-1.7918,-1.7952,-1.7969,-1.8008,-1.803,-1.8061,-1.8069,-1.8043,-1.8138,-1.8104,-1.8145,-1.8145,-1.8167,-1.8166,-1.8279,-1.818,-1.8179,-1.8179,-1.8179,0,-1.7734,-1.7785,-1.7797,-1.7833,-1.789,-1.7893,-1.7949,-1.7964,-1.7989,-1.8027,-1.802,-1.8056,-1.8063,-1.8101,-1.8107,-1.8164,-1.8174,-1.8181,-1.8182,-1.8182,-1.8182,-1.8198,-1.8193,-1.8182,-1.8182,-1.8181,-1.818,0,-1.7815,-1.7825,-1.7888,-1.7917,-1.7925,-1.7966,-1.7991,-1.8025,-1.8035,-1.8084,-1.8096,-1.8112,-1.8157,-1.8167,-1.8219,-1.8223,-1.8291,-1.8287,-1.8281,-1.8281,-1.8322,-1.8318,-1.8451,-1.8469,-1.8356,-1.8357,-1.8358,0,-1.7872,-1.7911,-1.7944,-1.7969,-1.7987,-1.8027,-1.8053,-1.8057,-1.8084,-1.8121,-1.8151,-1.8194,-1.8229,-1.83,-1.8318,-1.8358,-1.8355,-1.8398,-1.8361,-1.836,-1.8357,-1.8355,-1.8359,-1.8406,-1.8407,-1.8408,-1.8409,0,-1.7973,-1.7976,-1.8013,-1.8052,-1.8082,-1.8113,-1.8142,-1.8163,-1.8172,-1.8202,-1.8247,-1.8274,-1.8327,-1.8371,-1.8411,-1.8428,-1.8421,-1.842,-1.8432,-1.8433,-1.8429,-1.8433,-1.8302,-1.8418,-1.8417,-1.8416,-1.8416,-1.8415,-1.8045,-1.8079,-1.8107,-1.8149,-1.8171,-1.8198,-1.8232,-1.8246,-1.8284,-1.8327,-1.8328,-1.8377,-1.8405,-1.8459,-1.8478,-1.8517,-1.8503,-1.852,-1.8525,-1.8529,-1.8533,-1.8422,-1.8524,-1.8524,-1.8523,-1.8523,-1.8523,0,-1.8146,-1.8164,-1.8201,-1.8242,-1.8275,-1.8263,-1.8295,-1.8323,-1.8366,-1.8394,-1.8428,-1.8479,-1.8521,-1.8541,-1.8582,-1.8609,-1.8607,-1.862,-1.8619,-1.8623,-1.8542,-1.8529,-1.8621,-1.8621,-1.8621,-1.8621,-1.8621,-1.8621,-1.8203,-1.826,-1.8266,-1.8334,-1.8351,-1.8399,-1.8418,-1.8443,-1.8465,-1.8523,-1.8557,-1.8569,-1.8594,-1.8637,-1.8675,-1.8679,-1.8695,-1.8711,-1.8714,-1.8639,-1.8629,-1.8619,-1.8606,-1.8714,-1.8714,-1.8792,-1.8792,-1.8793]}]]